User: anonymous   Login
Location: Unspecified
(0.0000°N, 0.0000°E)
Time: 16:31:00
(UTC+00:00)
Language:

YUBILEINY - Orbit

View from above orbital plane
View from above orbital plane
View from above satellite
View from above satellite

Ground track
Ground track

The orbit data is extracted from the following two-line orbital elements,

1 32953U 08025A   17204.74288787 +.00000025 +00000-0 +10850-3 0  9996
2 32953 082.5004 216.9213 0018432 201.7628 158.2671 12.43078193415964
Epoch (UTC): 23 July 2017 17:49:45
Eccentricity: 0.0018432
inclination: 82.5004°
perigee height: 1479 km
apogee height: 1508 km
right ascension of ascending node: 216.9213°
argument of perigee: 201.7628°
revolutions per day: 12.43078193
mean anomaly at epoch: 158.2671°
orbit number at epoch: 41596

The dashed part of the orbit path shows where the satellite is in the earth's shadow,  

DLR